N1SU-13 Weather Reports


Display with metric or nautical units.
time (UTC)temp
F
wind
direction
speed
MPH
gust
MPH
rain 1hr
in
rain 24hr
in
rain mn
in
humidity
%
barometer
mb
20260901030021 68 0.0 0.0 0.00 0.00 0.00 68 1006.7
20260901024945 68 0.0 0.0 0.00 0.00 0.00 66 1006.6
20260901023917 69 0.0 0.0 0.00 0.00 0.00 64 1006.7
20260901022857 70 0.0 0.0 0.00 0.00 0.00 63 1006.6
20260901021717 70 0.0 0.0 0.00 0.00 0.00 62 1006.5
20260901020624 71 0.0 0.0 0.00 0.00 0.00 61 1006.4
20260901015517 71 0.0 0.0 0.00 0.00 0.00 60 1006.4
20260901014342 72 0.0 0.0 0.00 0.00 0.00 59 1006.4
20260901013424 73 0.0 0.0 0.00 0.00 0.00 57 1006.3
20260901012313 74 0.0 0.0 0.00 0.00 0.00 55 1006.2
20260901011350 75 0.0 0.0 0.00 0.00 0.00 52 1006.1
20260901010402 75 0.0 0.0 0.00 0.00 0.00 50 1006.1
20260901005237 76 0.0 0.0 0.00 0.00 0.00 50 1006.1
20260901004222 76 0.0 0.0 0.00 0.00 0.00 49 1006.0
20260901003046 76 0.0 0.0 0.00 0.00 0.00 49 1006.1
20260901001959 76 0.0 0.0 0.00 0.00 0.00 49 1006.3
20260901000856 76 0.0 0.0 0.00 0.00 0.00 50 1006.2
20260831235912 76 0.0 0.0 0.00 0.00 0.00 51 1006.4
20260831234940 75 0.0 0.0 0.00 0.00 0.00 52 1006.5
20260831233837 75 0.0 0.0 0.00 0.00 0.00 53 1006.7
20260831232752 74 0.0 0.0 0.00 0.00 0.00 52 1006.8
20260831231623 75 0.0 0.0 0.00 0.00 0.00 51 1006.8
20260831230506 74 0.0 0.0 0.00 0.00 0.00 51 1007.0
20260831225324 73 0.0 0.0 0.00 0.00 0.00 54 1007.1
20260831224347 73 0.0 0.0 0.00 0.00 0.00 54 1007.2
20260831223239 73 0.0 0.0 0.00 0.00 0.00 54 1007.5
20260831222110 73 0.0 0.0 0.00 0.00 0.00 54 1007.6
20260831221026 73 0.0 0.0 0.00 0.00 0.00 55 1007.6
20260831215906 73 0.0 0.0 0.00 0.00 0.00 55 1007.7
20260831214813 72 0.0 0.0 0.00 0.00 0.00 56 1007.9
20260831213741 72 0.0 0.0 0.00 0.00 0.00 56 1008.0
20260831213146 71 0.0 0.0 0.00 0.00 0.00 57 1008.0
20260831212827 71 0.0 0.0 0.00 0.00 0.00 57 1008.1
20260831212729 71 0.0 0.0 0.00 0.00 0.00 57 1008.2
20260831212204 71 0.0 0.0 0.00 0.00 0.00 57 1008.2
20260831211620 71 0.0 0.0 0.00 0.00 0.00 59 1008.3
20260831210631 71 0.0 0.0 0.00 0.00 0.00 58 1008.4
20260831205703 70 0.0 0.0 0.00 0.00 0.00 57 1008.6
20260831205243 70 0.0 0.0 0.00 0.00 0.00 58 1008.6
20260831204548 70 0.0 0.0 0.00 0.00 0.00 59 1008.8
20260831203439 69 0.0 0.0 0.00 0.00 0.00 60 1008.8
20260831203417 69 0.0 0.0 0.00 0.00 0.00 60 1008.9
20260831202355 68 0.0 0.0 0.00 0.00 0.00 60 1009.0
20260831201410 68 0.0 0.0 0.00 0.00 0.00 62 1009.2
20260831200334 67 0.0 0.0 0.00 0.00 0.00 63 1009.5
20260831195407 67 0.0 0.0 0.00 0.00 0.00 63 1009.6
20260831194256 66 0.0 0.0 0.00 0.00 0.00 63 1009.7
20260831193319 66 0.0 0.0 0.00 0.00 0.00 64 1009.9
20260831192348 65 0.0 0.0 0.00 0.00 0.00 66 1010.1
20260831191308 64 0.0 0.0 0.00 0.00 0.00 66 1010.4
20260831190330 64 0.0 0.0 0.00 0.00 0.00 67 1010.6
20260831185234 63 0.0 0.0 0.00 0.00 0.00 68 1010.7
20260831184122 63 0.0 0.0 0.00 0.00 0.00 68 1010.9
20260831182951 62 0.0 0.0 0.00 0.00 0.00 69 1010.9
20260831181832 61 0.0 0.0 0.00 0.00 0.00 68 1011.2
20260831180639 61 0.0 0.0 0.00 0.00 0.00 70 1011.3
20260831175554 60 0.0 0.0 0.00 0.00 0.00 73 1011.5
20260831174505 59 0.0 0.0 0.00 0.00 0.00 76 1011.6
20260831173503 59 0.0 0.0 0.00 0.00 0.00 76 1011.6
20260831172427 58 0.0 0.0 0.00 0.00 0.00 76 1011.9
20260831171423 57 0.0 0.0 0.00 0.00 0.00 79 1011.9
20260831170329 56 0.0 0.0 0.00 0.00 0.00 82 1012.0
20260831165219 55 0.0 0.0 0.00 0.00 0.00 84 1012.2
20260831164207 55 0.0 0.0 0.00 0.00 0.00 86 1012.3
20260831163121 54 0.0 0.0 0.00 0.00 0.00 87 1012.6
20260831162118 53 0.0 0.0 0.00 0.00 0.00 89 1012.7
20260831161059 53 0.0 0.0 0.00 0.00 0.00 90 1012.8
20260831160036 52 0.0 0.0 0.00 0.00 0.00 92 1012.9
20260831155056 52 0.0 0.0 0.00 0.00 0.00 93 1012.8
20260831153948 51 0.0 0.0 0.00 0.00 0.00 94 1013.0
20260831152917 51 0.0 0.0 0.00 0.00 0.00 94 1013.1
20260831151744 51 0.0 0.0 0.00 0.00 0.00 94 1013.2
20260831150653 50 0.0 0.0 0.00 0.00 0.00 92 1013.1
20260831145609 50 0.0 0.0 0.00 0.00 0.00 92 1013.0
20260831144550 50 0.0 0.0 0.00 0.00 0.00 92 1013.0
20260831143446 50 0.0 0.0 0.00 0.00 0.00 92 1013.1
20260831142510 49 0.0 0.0 0.00 0.00 0.00 92 1013.1
20260831141537 49 0.0 0.0 0.00 0.00 0.00 91 1013.2
20260831140607 49 0.0 0.0 0.00 0.00 0.00 91 1013.1
20260831135647 49 0.0 0.0 0.00 0.00 0.00 91 1013.1
20260831134609 49 0.0 0.0 0.00 0.00 0.00 91 1013.1
20260831133625 49 0.0 0.0 0.00 0.00 0.00 90 1013.0
20260831132651 49 0.0 0.0 0.00 0.00 0.00 90 1013.0
20260831131642 49 0.0 0.0 0.00 0.00 0.00 90 1013.0
20260831130706 49 0.0 0.0 0.00 0.00 0.00 90 1013.1
20260831125624 50 0.0 0.0 0.00 0.00 0.00 90 1013.2
20260831124642 50 0.0 0.0 0.00 0.00 0.00 90 1013.2
20260831123556 50 0.0 0.0 0.00 0.00 0.00 90 1013.3
20260831122535 50 0.0 0.0 0.00 0.00 0.00 89 1013.4
20260831121411 50 0.0 0.0 0.00 0.00 0.00 89 1013.5
20260831120436 50 0.0 0.0 0.00 0.00 0.00 89 1013.6
20260831115309 50 0.0 0.0 0.00 0.00 0.00 88 1013.7
20260831114135 50 0.0 0.0 0.00 0.00 0.00 88 1013.7
20260831113211 51 0.0 0.0 0.00 0.00 0.00 88 1013.6
20260831112036 51 0.0 0.0 0.00 0.00 0.00 88 1014.0
20260831111009 51 0.0 0.0 0.00 0.00 0.00 87 1014.0
20260831110014 51 0.0 0.0 0.00 0.00 0.00 87 1014.1
20260831105054 51 0.0 0.0 0.00 0.00 0.00 87 1013.9
20260831103946 51 0.0 0.0 0.00 0.00 0.00 87 1014.1
20260831102836 51 0.0 0.0 0.00 0.00 0.00 87 1014.2
20260831101730 51 0.0 0.0 0.00 0.00 0.00 86 1014.4
20260831100605 52 0.0 0.0 0.00 0.00 0.00 86 1014.4
20260831095512 52 0.0 0.0 0.00 0.00 0.00 85 1014.5
20260831094451 52 0.0 0.0 0.00 0.00 0.00 85 1014.5
20260831093329 52 0.0 0.0 0.00 0.00 0.00 84 1014.8
20260831092226 53 0.0 0.0 0.00 0.00 0.00 84 1014.8
20260831091207 53 0.0 0.0 0.00 0.00 0.00 84 1014.9
20260831090150 53 0.0 0.0 0.00 0.00 0.00 83 1015.0
20260831085115 53 0.0 0.0 0.00 0.00 0.00 83 1015.1
20260831084022 53 0.0 0.0 0.00 0.00 0.00 82 1015.0
20260831083013 53 0.0 0.0 0.00 0.00 0.00 82 1015.1
20260831081943 54 0.0 0.0 0.00 0.00 0.00 81 1015.1
20260831080859 54 0.0 0.0 0.00 0.00 0.00 81 1015.2
20260831075907 54 0.0 0.0 0.00 0.00 0.00 81 1015.3
20260831074801 54 0.0 0.0 0.00 0.00 0.00 81 1015.5
20260831073736 54 0.0 0.0 0.00 0.00 0.00 81 1015.4
20260831072747 54 0.0 0.0 0.00 0.00 0.00 80 1015.4
20260831071631 55 0.0 0.0 0.00 0.00 0.00 80 1015.6
20260831070700 55 0.0 0.0 0.00 0.00 0.00 80 1015.7
20260831065520 55 0.0 0.0 0.00 0.00 0.00 79 1015.9
20260831064600 55 0.0 0.0 0.00 0.00 0.00 78 1015.9
20260831063631 56 0.0 0.0 0.00 0.00 0.00 78 1015.9
20260831062508 56 0.0 0.0 0.00 0.00 0.00 78 1016.0
20260831061348 56 0.0 0.0 0.00 0.00 0.00 77 1016.1
20260831060305 56 0.0 0.0 0.00 0.00 0.00 77 1016.1
20260831055338 57 0.0 0.0 0.00 0.00 0.00 76 1016.2
20260831054406 57 0.0 0.0 0.00 0.00 0.00 76 1016.3
20260831053428 57 0.0 0.0 0.00 0.00 0.00 75 1016.6
20260831052318 58 0.0 0.0 0.00 0.00 0.00 74 1016.5
20260831051206 58 0.0 0.0 0.00 0.00 0.00 73 1016.5
20260831050053 58 0.0 0.0 0.00 0.00 0.00 73 1016.6
20260831045002 59 0.0 0.0 0.00 0.00 0.00 72 1016.7
20260831043840 59 0.0 0.0 0.00 0.00 0.00 71 1016.7
20260831042908 60 0.0 0.0 0.00 0.00 0.00 70 1016.6
20260831041806 60 0.0 0.0 0.00 0.00 0.00 69 1016.6
20260831040658 61 0.0 0.0 0.00 0.00 0.00 68 1016.6
20260831035604 61 0.0 0.0 0.00 0.00 0.00 66 1016.6
20260831034425 61 0.0 0.0 0.00 0.00 0.00 65 1016.4
20260831033741 62 0.0 0.0 0.00 0.00 0.00 65 1016.4
20260831033351 62 0.0 0.0 0.00 0.00 0.00 64 1016.3
20260831032505 62 0.0 0.0 0.00 0.00 0.00 63 1016.3
20260831032419 62 0.0 0.0 0.00 0.00 0.00 63 1016.3
20260831031848 63 0.0 0.0 0.00 0.00 0.00 63 1016.2
20260831031423 63 0.0 0.0 0.00 0.00 0.00 62 1016.3